Wind_Speed
41 42 43 44 44 45 45 45 45 45 46 46 46 46 46 46 47 47 47 47 47 46 46 46 46 46 46 45 45 46 46 46 46 46 45 46 46 46
41 41 41 42 42 43 43 44 45 45 45 45 46 47 47 46 46 47 48 48 48 48 47 46 47 47 47 47 47 47 48 48 47 47 48 48 47 47
41 41 41 41 41 42 42 43 43 44 44 44 45 46 47 47 47 48 48 48 48 48 48 48 48 48 49 48 49 49 48 48 49 49 49 49 48 49
41 41 41 41 41 41 41 41 42 43 44 44 45 46 47 47 47 48 48 48 49 48 48 49 49 49 50 50 50 50 49 49 49 49 49 49 49 50
40 40 40 40 40 40 41 41 41 42 43 43 44 45 46 47 47 47 46 47 49 49 49 49 49 49 49 50 50 50 49 49 49 50 50 50 51 51
39 39 39 40 40 39 39 40 41 41 42 43 43 44 45 46 47 47 47 47 47 48 49 49 49 50 50 49 49 49 49 49 49 49 50 50 50 50
38 38 39 40 39 39 39 40 40 40 40 40 41 42 43 44 45 46 47 47 48 48 49 49 49 49 49 49 49 48 49 49 48 48 48 48 48 48
36 37 37 38 38 38 38 38 38 38 39 39 39 40 40 41 42 43 44 45 46 47 47 47 47 47 48 48 48 48 48 48 47 47 47 46 46 46
35 35 35 36 36 37 36 37 37 37 37 38 38 39 39 39 40 41 42 43 43 44 45 45 45 45 46 46 47 47 46 46 45 45 44 44 43 42
33 34 35 35 35 36 35 36 36 37 37 38 39 39 39 39 39 40 40 40 41 42 43 43 43 43 43 43 43 44 45 44 44 44 43 43 42 42
32 33 34 34 35 35 35 35 36 36 36 37 38 39 39 39 39 39 39 39 40 40 41 41 41 40 40 40 41 41 41 41 41 41 42 42 42 43
30 31 31 32 33 33 33 34 35 35 35 36 36 37 37 38 38 38 38 38 39 39 39 38 38 38 38 38 38 38 38 38 39 40 40 40 40 41
29 29 30 30 31 31 32 33 33 34 34 34 34 34 35 35 35 35 35 36 36 37 37 36 35 35 35 35 35 35 35 35 36 38 38 38 39 39
28 28 28 29 30 30 31 32 32 32 32 32 32 32 32 33 33 34 33 33 33 33 33 33 33 33 33 33 32 32 33 34 34 35 36 36 36 36
26 27 27 28 29 29 30 29 30 30 30 30 30 30 30 30 31 31 31 30 29 28 28 29 29 29 29 29 29 30 30 31 31 32 33 33 33 33
25 25 26 27 27 27 28 27 27 27 28 28 28 28 28 29 29 29 28 27 26 26 26 26 26 26 26 26 26 27 27 28 28 29 30 30 31 31
24 24 25 25 24 25 26 26 26 25 25 25 26 26 27 27 27 26 25 25 25 24 24 24 24 24 24 24 24 24 25 26 26 26 27 28 29 29
22 22 22 22 23 23 24 24 24 24 23 23 23 23 24 24 24 24 24 23 22 22 22 23 22 22 22 22 22 23 23 24 24 25 26 26 26 25
21 21 21 20 21 21 22 22 22 22 22 21 21 21 21 22 22 22 22 21 21 20 21 21 21 21 21 21 21 21 21 22 23 23 24 24 23 23
19 19 19 19 19 19 19 20 20 20 19 19 19 19 19 19 19 19 20 19 19 19 19 20 20 19 19 20 20 20 20 20 21 21 21 21 21 21
18 18 18 17 17 17 17 17 17 18 18 18 18 18 17 17 17 17 17 17 17 17 17 18 18 18 19 19 19 19 19 19 19 19 18 18 18 19
17 17 17 16 16 16 16 16 16 16 17 17 17 16 15 14 14 14 15 15 15 16 16 17 17 18 18 18 18 18 18 18 18 18 17 17 16 16
16 16 16 16 16 16 15 15 15 15 15 15 15 14 13 12 12 12 13 13 14 14 15 16 17 17 18 18 18 18 17 17 17 17 17 16 16 16
Wind_Direction
260 260 260 260 260 259 259 259 258 258 257 256 257 257 258 257 258 259 260 261 262 263 265 267 268 269 271 272 272 272 273 273 274 274 275 274 274 274
259 259 260 261 261 259 259 259 259 258 257 257 257 258 258 259 260 261 261 262 263 263 265 267 268 269 270 272 273 273 273 273 273 274 274 274 274 274
259 258 259 259 260 259 259 259 260 259 258 258 257 257 258 259 260 261 262 263 264 264 265 267 268 269 271 272 273 273 273 273 274 274 274 275 274 274
258 258 258 259 259 259 259 261 261 260 260 259 258 259 259 259 261 262 263 263 264 265 266 268 269 270 272 272 273 273 274 274 274 275 275 274 274 274
258 258 257 258 259 259 261 262 262 261 261 261 260 260 260 261 262 262 263 264 264 265 266 267 268 269 270 271 272 272 273 273 274 274 274 274 273 274
258 258 257 258 259 260 262 263 263 263 263 262 262 261 261 262 262 263 264 264 265 266 266 268 269 269 270 270 271 271 272 273 274 275 275 275 275 275
259 259 259 260 260 261 262 263 264 264 264 264 264 263 263 263 264 264 265 265 266 267 268 269 269 270 270 270 271 272 272 274 275 276 276 276 276 276
261 261 260 260 260 262 262 262 263 264 265 265 265 265 265 265 265 266 266 267 268 269 269 269 270 270 271 271 271 272 272 273 275 276 275 275 275 275
262 261 260 259 259 260 260 262 263 264 264 265 265 266 267 267 267 267 268 268 268 268 269 270 271 272 272 272 271 271 272 274 275 275 275 275 275 275
262 262 260 259 259 259 260 262 263 264 265 266 266 266 267 268 268 268 269 269 269 269 269 270 271 272 272 272 272 272 273 274 275 276 276 275 275 276
263 262 261 260 259 259 260 261 263 265 266 267 267 266 267 269 269 269 269 269 269 270 270 271 271 271 273 272 272 273 274 274 274 275 276 275 275 275
263 264 263 261 260 260 262 263 264 265 265 266 266 266 267 269 269 270 270 269 270 270 272 272 272 272 273 273 274 274 275 275 274 275 275 275 275 276
263 264 263 263 262 261 262 264 265 266 266 266 267 266 267 268 268 270 271 270 271 272 272 272 272 271 273 273 273 274 275 277 277 276 276 277 277 277
264 263 263 263 263 264 264 264 265 266 267 266 266 266 266 267 268 270 271 271 272 272 271 271 271 271 273 273 274 275 276 278 278 277 277 278 279 279
263 263 263 264 265 265 265 266 266 266 266 266 266 265 265 265 267 269 270 271 271 271 271 271 271 272 273 274 275 277 278 279 279 280 280 281 281 281
263 264 265 266 265 266 266 267 268 267 266 266 265 264 264 265 266 267 267 268 268 269 270 270 271 272 273 275 277 279 280 281 281 282 283 283 283 283
264 266 267 266 266 267 267 266 266 267 268 267 266 265 265 265 266 266 265 267 267 268 270 270 273 275 276 278 281 282 283 283 284 285 285 286 286 285
263 266 266 265 265 266 266 265 266 267 268 268 268 267 266 266 266 266 264 266 267 268 270 271 274 277 279 281 283 285 286 287 288 289 290 289 288 288
262 265 266 266 267 266 267 267 268 268 268 268 269 269 268 267 265 265 264 264 266 268 270 272 274 276 279 281 285 287 288 289 291 292 292 290 290 289
263 264 266 267 268 268 269 270 269 268 267 267 268 268 268 267 266 264 263 265 268 269 271 272 274 276 278 282 286 289 291 294 295 294 293 292 292 292
262 264 266 268 268 270 270 269 268 266 265 265 266 267 268 268 266 266 265 264 267 269 271 272 273 275 278 282 286 289 293 295 296 296 296 294 292 292
260 262 264 267 269 270 270 268 266 265 265 265 265 265 266 266 265 264 264 264 265 268 271 272 274 276 281 284 286 289 292 295 297 299 298 296 295 295
260 262 264 267 270 270 269 267 264 263 263 263 263 262 262 265 266 266 266 266 265 269 271 271 274 278 283 285 285 287 290 293 296 299 299 299 298 297
Height
5629 5631 5632 5634 5635 5637 5638 5640 5642 5644 5647 5649 5650 5652 5653 5655 5656 5657 5659 5661 5662 5662 5663 5664 5664 5665 5665 5664 5664 5664 5663 5663 5662 5661 5660 5659 5658 5656
5618 5620 5621 5623 5624 5625 5627 5628 5630 5632 5634 5636 5638 5639 5640 5642 5643 5645 5646 5648 5649 5650 5651 5651 5652 5652 5652 5652 5652 5651 5651 5650 5649 5648 5647 5646 5645 5643
5608 5609 5611 5612 5613 5614 5615 5616 5618 5619 5622 5624 5625 5626 5628 5630 5631 5632 5634 5635 5636 5637 5638 5638 5639 5639 5639 5639 5638 5638 5638 5637 5636 5635 5634 5633 5631 5630
5597 5599 5600 5601 5602 5604 5604 5605 5606 5607 5610 5612 5613 5614 5615 5616 5618 5619 5621 5622 5623 5624 5625 5625 5626 5626 5626 5625 5625 5624 5624 5623 5622 5620 5619 5619 5618 5616
5586 5588 5589 5590 5592 5593 5594 5594 5595 5596 5597 5599 5601 5602 5603 5604 5605 5606 5607 5608 5609 5610 5611 5612 5612 5612 5612 5611 5611 5610 5610 5609 5608 5606 5604 5603 5602 5601
5575 5576 5578 5579 5581 5582 5583 5584 5584 5585 5586 5587 5588 5589 5590 5591 5592 5593 5594 5595 5596 5597 5597 5598 5598 5598 5598 5597 5597 5596 5595 5594 5593 5591 5590 5589 5587 5586
5564 5565 5567 5569 5570 5571 5572 5573 5573 5574 5574 5575 5576 5577 5578 5579 5580 5581 5581 5582 5583 5583 5583 5584 5584 5584 5583 5582 5582 5581 5581 5580 5579 5578 5576 5575 5573 5572
5553 5555 5556 5557 5559 5560 5561 5562 5562 5563 5564 5565 5565 5566 5566 5567 5567 5568 5568 5569 5570 5570 5569 5570 5569 5569 5569 5569 5568 5567 5567 5566 5565 5564 5563 5561 5560 5559
5543 5544 5545 5547 5548 5549 5550 5551 5552 5552 5553 5554 5554 5555 5555 5555 5556 5556 5556 5556 5557 5557 5556 5557 5556 5556 5556 5555 5554 5554 5554 5553 5552 5551 5550 5549 5547 5546
5533 5534 5535 5536 5537 5539 5540 5541 5541 5542 5542 5543 5543 5543 5543 5543 5543 5544 5544 5545 5545 5544 5544 5545 5544 5544 5543 5542 5542 5541 5541 5540 5540 5538 5537 5536 5535 5534
5523 5524 5525 5526 5527 5528 5529 5530 5531 5531 5531 5531 5532 5532 5532 5532 5532 5532 5532 5533 5533 5533 5532 5533 5533 5532 5532 5531 5530 5529 5529 5528 5527 5526 5525 5524 5523 5522
5514 5515 5516 5516 5517 5518 5519 5520 5520 5521 5521 5521 5521 5521 5521 5521 5521 5521 5521 5522 5522 5523 5522 5522 5521 5521 5521 5520 5519 5518 5517 5516 5515 5514 5513 5512 5511 5510
5505 5506 5507 5507 5508 5508 5509 5510 5510 5510 5511 5511 5511 5511 5511 5511 5511 5511 5511 5511 5511 5512 5511 5511 5511 5510 5510 5510 5509 5507 5506 5505 5504 5503 5502 5501 5500 5498
5497 5498 5498 5499 5499 5500 5500 5501 5501 5501 5501 5501 5501 5501 5501 5501 5501 5501 5501 5501 5501 5501 5501 5500 5501 5500 5500 5499 5499 5498 5496 5495 5494 5493 5491 5490 5489 5487
5489 5490 5490 5490 5491 5491 5491 5492 5492 5492 5492 5492 5492 5492 5492 5492 5492 5492 5492 5491 5491 5491 5491 5491 5491 5491 5491 5490 5490 5489 5487 5486 5484 5483 5481 5480 5479 5477
5481 5482 5482 5483 5483 5483 5483 5483 5483 5483 5483 5483 5483 5483 5483 5483 5483 5483 5483 5483 5483 5483 5483 5483 5483 5483 5482 5482 5481 5480 5479 5478 5476 5474 5472 5471 5469 5468
5474 5475 5475 5475 5475 5475 5475 5475 5475 5475 5475 5475 5475 5475 5475 5475 5475 5475 5475 5475 5476 5476 5476 5476 5475 5475 5474 5474 5473 5472 5471 5469 5468 5466 5464 5462 5461 5459
5467 5467 5468 5468 5468 5468 5467 5467 5467 5467 5468 5468 5468 5468 5468 5468 5468 5468 5468 5468 5469 5469 5469 5469 5468 5468 5468 5467 5466 5465 5463 5462 5460 5458 5456 5454 5453 5451
5460 5461 5461 5461 5461 5461 5461 5461 5460 5461 5461 5461 5461 5461 5461 5461 5461 5461 5461 5462 5462 5462 5462 5462 5462 5461 5461 5461 5460 5458 5456 5454 5452 5451 5448 5447 5445 5443
5454 5455 5455 5455 5455 5455 5455 5454 5454 5454 5454 5455 5455 5455 5455 5455 5455 5455 5455 5455 5456 5456 5456 5456 5456 5455 5455 5454 5453 5452 5450 5447 5446 5444 5442 5440 5438 5437
5449 5449 5449 5450 5449 5449 5449 5449 5449 5449 5449 5449 5449 5449 5449 5449 5449 5449 5449 5450 5450 5450 5450 5451 5450 5450 5449 5448 5447 5445 5443 5441 5440 5438 5436 5435 5433 5431
5444 5444 5444 5444 5444 5444 5444 5443 5443 5443 5444 5444 5444 5444 5444 5444 5444 5445 5445 5445 5445 5445 5445 5445 5445 5444 5444 5443 5441 5440 5438 5436 5434 5432 5431 5429 5428 5426
5439 5439 5439 5439 5439 5439 5439 5439 5438 5439 5439 5439 5440 5440 5440 5440 5440 5440 5440 5440 5441 5441 5441 5440 5440 5439 5438 5437 5436 5434 5433 5432 5430 5428 5426 5424 5423 5421